| time (UTC) | temp F | wind direction | speed MPH | gust MPH | rain 1hr in | rain 24hr in | rain mn in | humidity % | barometer mb |
| 20260906233127 | 75 | 219 | 0.0 | 2.0 | 0.00 | 0.00 | 0.00 | 74 | 1024.1 |
| 20260906232154 | 75 | 220 | 1.0 | 2.0 | 0.00 | 0.00 | 0.00 | 74 | 1024.3 |
| 20260906231141 | 75 | 257 | 0.0 | 2.0 | 0.00 | 0.00 | 0.00 | 74 | 1024.3 |
| 20260906230127 | 75 | 252 | 0.0 | 3.0 | 0.00 | 0.00 | 0.00 | 74 | 1024.4 |
| 20260906225131 | 75 | 107 | 0.0 | 2.0 | 0.00 | 0.00 | 0.00 | 73 | 1024.3 |
| 20260906224113 | 75 | 98 | 1.0 | 5.0 | 0.00 | 0.00 | 0.00 | 73 | 1024.3 |
| 20260906223122 | 75 | 59 | 0.0 | 3.0 | 0.00 | 0.00 | 0.00 | 73 | 1024.2 |
| 20260906222126 | 75 | 166 | 0.0 | 2.0 | 0.00 | 0.00 | 0.00 | 73 | 1024.2 |
| 20260906221131 | 75 | 186 | 0.0 | 2.0 | 0.00 | 0.00 | 0.00 | 73 | 1024.2 |
| 20260906220114 | 75 | 189 | 0.0 | 3.0 | 0.00 | 0.00 | 0.00 | 74 | 1024.2 |
| 20260906215144 | 74 | 161 | 1.0 | 3.0 | 0.00 | 0.00 | 0.00 | 75 | 1024.2 |
| 20260906214145 | 74 | 239 | 0.0 | 4.0 | 0.00 | 0.00 | 0.00 | 75 | 1024.2 |
| 20260906213127 | 74 | 215 | 1.0 | 3.0 | 0.00 | 0.00 | 0.00 | 76 | 1024.3 |
| 20260906212130 | 74 | 202 | 1.0 | 3.0 | 0.00 | 0.00 | 0.00 | 76 | 1024.3 |
| 20260906211132 | 74 | 203 | 0.0 | 3.0 | 0.00 | 0.00 | 0.00 | 76 | 1024.3 |
| 20260906210134 | 74 | 203 | 0.0 | 3.0 | 0.00 | 0.00 | 0.00 | 75 | 1024.2 |
| 20260906205128 | 75 | 209 | 1.0 | 3.0 | 0.00 | 0.00 | 0.00 | 74 | 1024.1 |
| 20260906204129 | 76 | 217 | 1.0 | 3.0 | 0.00 | 0.00 | 0.00 | 73 | 1024.0 |
| 20260906203132 | 77 | 205 | 1.0 | 4.0 | 0.00 | 0.00 | 0.00 | 70 | 1024.0 |
| 20260906202118 | 77 | 82 | 0.0 | 3.0 | 0.00 | 0.00 | 0.00 | 70 | 1023.9 |
| 20260906201120 | 77 | 101 | 0.0 | 3.0 | 0.00 | 0.00 | 0.00 | 70 | 1023.8 |
| 20260906200122 | 77 | 24 | 1.0 | 4.0 | 0.00 | 0.00 | 0.00 | 71 | 1023.8 |
| 20260906195124 | 77 | 106 | 1.0 | 4.0 | 0.00 | 0.00 | 0.00 | 72 | 1023.8 |
| 20260906194131 | 76 | 275 | 0.0 | 5.0 | 0.00 | 0.00 | 0.00 | 73 | 1023.7 |
| 20260906193130 | 75 | 336 | 0.0 | 2.0 | 0.00 | 0.00 | 0.00 | 75 | 1023.7 |
| 20260906192128 | 75 | 335 | 0.0 | 1.0 | 0.00 | 0.00 | 0.00 | 75 | 1023.7 |
| 20260906191132 | 76 | 335 | 0.0 | 2.0 | 0.00 | 0.00 | 0.00 | 74 | 1023.6 |
| 20260906190151 | 77 | 335 | 0.0 | 3.0 | 0.00 | 0.00 | 0.00 | 71 | 1023.6 |
| 20260906185137 | 77 | 344 | 1.0 | 3.0 | 0.00 | 0.00 | 0.00 | 71 | 1023.5 |
| 20260906184156 | 77 | 28 | 3.0 | 5.0 | 0.00 | 0.00 | 0.00 | 70 | 1023.4 |
| 20260906183159 | 77 | 164 | 0.0 | 1.0 | 0.00 | 0.00 | 0.00 | 70 | 1023.3 |
| 20260906182119 | 78 | 164 | 0.0 | 2.0 | 0.00 | 0.00 | 0.00 | 69 | 1023.2 |
| 20260906181120 | 78 | 164 | 0.0 | 2.0 | 0.00 | 0.00 | 0.00 | 69 | 1023.1 |
| 20260906180124 | 79 | 164 | 0.0 | 2.0 | 0.00 | 0.00 | 0.00 | 69 | 1023.0 |
| 20260906175126 | 80 | 164 | 0.0 | 2.0 | 0.00 | 0.00 | 0.00 | 68 | 1023.0 |
| 20260906174129 | 80 | 164 | 0.0 | 2.0 | 0.00 | 0.00 | 0.00 | 67 | 1022.9 |
| 20260906173132 | 81 | 164 | 0.0 | 2.0 | 0.00 | 0.00 | 0.00 | 66 | 1023.0 |
| 20260906172119 | 82 | 164 | 0.0 | 2.0 | 0.00 | 0.00 | 0.00 | 65 | 1022.9 |
| 20260906171122 | 83 | 164 | 0.0 | 2.0 | 0.00 | 0.00 | 0.00 | 64 | 1022.9 |
| 20260906170125 | 84 | 164 | 0.0 | 1.0 | 0.00 | 0.00 | 0.00 | 61 | 1022.8 |
| 20260906165125 | 84 | 164 | 0.0 | 2.0 | 0.00 | 0.00 | 0.00 | 57 | 1022.7 |
| 20260906164130 | 85 | 165 | 0.0 | 1.0 | 0.00 | 0.00 | 0.00 | 56 | 1022.7 |
| 20260906163133 | 85 | 165 | 0.0 | 2.0 | 0.00 | 0.00 | 0.00 | 54 | 1022.6 |
| 20260906162130 | 86 | 165 | 0.0 | 2.0 | 0.00 | 0.00 | 0.00 | 52 | 1022.5 |
| 20260906161134 | 86 | 165 | 0.0 | 2.0 | 0.00 | 0.00 | 0.00 | 52 | 1022.6 |
| 20260906160116 | 87 | 165 | 0.0 | 2.0 | 0.00 | 0.00 | 0.00 | 51 | 1022.5 |
| 20260906155118 | 87 | 173 | 1.0 | 2.0 | 0.00 | 0.00 | 0.00 | 51 | 1022.5 |
| 20260906154120 | 86 | 84 | 0.0 | 2.0 | 0.00 | 0.00 | 0.00 | 51 | 1022.6 |
| 20260906153121 | 86 | 80 | 1.0 | 2.0 | 0.00 | 0.00 | 0.00 | 53 | 1022.5 |
| 20260906152127 | 86 | 80 | 0.0 | 2.0 | 0.00 | 0.00 | 0.00 | 52 | 1022.6 |
| 20260906151129 | 86 | 79 | 1.0 | 3.0 | 0.00 | 0.00 | 0.00 | 52 | 1022.7 |
| 20260906150133 | 86 | 138 | 0.0 | 3.0 | 0.00 | 0.00 | 0.00 | 51 | 1022.7 |
| 20260906145157 | 86 | 169 | 0.0 | 2.0 | 0.00 | 0.00 | 0.00 | 52 | 1022.7 |
| 20260906144118 | 86 | 164 | 2.0 | 5.0 | 0.00 | 0.00 | 0.00 | 51 | 1022.7 |
| 20260906143125 | 87 | 130 | 1.0 | 4.0 | 0.00 | 0.00 | 0.00 | 51 | 1022.8 |
| 20260906142129 | 88 | 105 | 1.0 | 4.0 | 0.00 | 0.00 | 0.00 | 50 | 1022.9 |
| 20260906141132 | 87 | 94 | 0.0 | 4.0 | 0.00 | 0.00 | 0.00 | 50 | 1022.8 |
| 20260906140136 | 87 | 98 | 1.0 | 3.0 | 0.00 | 0.00 | 0.00 | 51 | 1022.9 |
| 20260906135122 | 87 | 102 | 2.0 | 5.0 | 0.00 | 0.00 | 0.00 | 52 | 1022.9 |
| 20260906134145 | 87 | 218 | 2.0 | 4.0 | 0.00 | 0.00 | 0.00 | 49 | 1022.9 |
| 20260906133127 | 87 | 180 | 1.0 | 3.0 | 0.00 | 0.00 | 0.00 | 50 | 1023.1 |
| 20260906132153 | 87 | 90 | 2.0 | 3.0 | 0.00 | 0.00 | 0.00 | 57 | 1023.2 |
| 20260906131155 | 87 | 88 | 0.0 | 3.0 | 0.00 | 0.00 | 0.00 | 53 | 1023.3 |
| 20260906130119 | 87 | 102 | 2.0 | 4.0 | 0.00 | 0.00 | 0.00 | 52 | 1023.4 |
| 20260906125122 | 87 | 109 | 0.0 | 4.0 | 0.00 | 0.00 | 0.00 | 53 | 1023.4 |
| 20260906124125 | 86 | 33 | 0.0 | 5.0 | 0.00 | 0.00 | 0.00 | 54 | 1023.5 |
| 20260906123127 | 87 | 56 | 1.0 | 4.0 | 0.00 | 0.00 | 0.00 | 52 | 1023.5 |
| 20260906122132 | 87 | 178 | 1.0 | 3.0 | 0.00 | 0.00 | 0.00 | 51 | 1023.5 |
| 20260906121132 | 86 | 83 | 2.0 | 4.0 | 0.00 | 0.00 | 0.00 | 56 | 1023.5 |
| 20260906120135 | 85 | 43 | 2.0 | 4.0 | 0.00 | 0.00 | 0.00 | 56 | 1023.5 |
| 20260906115116 | 85 | 88 | 1.0 | 5.0 | 0.00 | 0.00 | 0.00 | 55 | 1023.6 |
| 20260906114124 | 86 | 80 | 1.0 | 3.0 | 0.00 | 0.00 | 0.00 | 57 | 1023.7 |
| 20260906113127 | 85 | 80 | 2.0 | 4.0 | 0.00 | 0.00 | 0.00 | 57 | 1023.8 |
| 20260906112130 | 85 | 232 | 1.0 | 4.0 | 0.00 | 0.00 | 0.00 | 54 | 1023.8 |
| 20260906111133 | 85 | 43 | 2.0 | 5.0 | 0.00 | 0.00 | 0.00 | 55 | 1023.8 |
| 20260906110120 | 84 | 32 | 0.0 | 4.0 | 0.00 | 0.00 | 0.00 | 55 | 1023.9 |
| 20260906105124 | 84 | 88 | 2.0 | 3.0 | 0.00 | 0.00 | 0.00 | 59 | 1023.9 |
| 20260906104127 | 83 | 27 | 1.0 | 5.0 | 0.00 | 0.00 | 0.00 | 58 | 1023.9 |
| 20260906103131 | 84 | 88 | 1.0 | 5.0 | 0.00 | 0.00 | 0.00 | 57 | 1023.9 |
| 20260906102153 | 84 | 72 | 0.0 | 4.0 | 0.00 | 0.00 | 0.00 | 59 | 1024.0 |
| 20260906101116 | 84 | 78 | 1.0 | 5.0 | 0.00 | 0.00 | 0.00 | 60 | 1024.2 |
| 20260906100120 | 83 | 67 | 1.0 | 4.0 | 0.00 | 0.00 | 0.00 | 61 | 1024.3 |
| 20260906095123 | 83 | 70 | 1.0 | 3.0 | 0.00 | 0.00 | 0.00 | 62 | 1024.3 |
| 20260906094127 | 83 | 67 | 1.0 | 3.0 | 0.00 | 0.00 | 0.00 | 61 | 1024.4 |
| 20260906093156 | 82 | 67 | 1.0 | 4.0 | 0.00 | 0.00 | 0.00 | 60 | 1024.4 |
| 20260906092136 | 81 | 83 | 1.0 | 3.0 | 0.00 | 0.00 | 0.00 | 62 | 1024.4 |
| 20260906091119 | 81 | 15 | 0.0 | 3.0 | 0.00 | 0.00 | 0.00 | 61 | 1024.5 |
| 20260906090121 | 81 | 15 | 0.0 | 3.0 | 0.00 | 0.00 | 0.00 | 60 | 1024.5 |
| 20260906085129 | 80 | 15 | 0.0 | 2.0 | 0.00 | 0.00 | 0.00 | 55 | 1024.4 |
| 20260906084129 | 80 | 15 | 1.0 | 2.0 | 0.00 | 0.00 | 0.00 | 59 | 1024.3 |
| 20260906083127 | 79 | 15 | 0.0 | 1.0 | 0.00 | 0.00 | 0.00 | 62 | 1024.3 |
| 20260906082151 | 78 | 15 | 0.0 | 0.0 | 0.00 | 0.00 | 0.00 | 60 | 1024.4 |
| 20260906081117 | 78 | 15 | 0.0 | 1.0 | 0.00 | 0.00 | 0.00 | 62 | 1024.3 |
| 20260906080121 | 79 | 15 | 0.0 | 1.0 | 0.00 | 0.00 | 0.00 | 59 | 1024.2 |
| 20260906075125 | 79 | 15 | 0.0 | 2.0 | 0.00 | 0.00 | 0.00 | 59 | 1024.2 |
| 20260906074128 | 78 | 15 | 0.0 | 2.0 | 0.00 | 0.00 | 0.00 | 53 | 1024.0 |
| 20260906073132 | 77 | 15 | 0.0 | 2.0 | 0.00 | 0.00 | 0.00 | 59 | 1024.0 |
| 20260906072119 | 76 | 15 | 1.0 | 3.0 | 0.00 | 0.00 | 0.00 | 54 | 1023.9 |
| 20260906071120 | 76 | 15 | 0.0 | 2.0 | 0.00 | 0.00 | 0.00 | 55 | 1023.8 |
| 20260906070123 | 75 | 15 | 0.0 | 2.0 | 0.00 | 0.00 | 0.00 | 58 | 1023.7 |
| 20260906065125 | 75 | 15 | 1.0 | 4.0 | 0.00 | 0.00 | 0.00 | 58 | 1023.7 |
| 20260906064133 | 74 | 5 | 1.0 | 3.0 | 0.00 | 0.00 | 0.00 | 61 | 1023.6 |
| 20260906063136 | 74 | 5 | 0.0 | 2.0 | 0.00 | 0.00 | 0.00 | 55 | 1023.5 |
| 20260906062119 | 74 | 5 | 0.0 | 3.0 | 0.00 | 0.00 | 0.00 | 53 | 1023.4 |
| 20260906061122 | 73 | 140 | 2.0 | 4.0 | 0.00 | 0.00 | 0.00 | 54 | 1023.3 |
| 20260906060130 | 72 | 280 | 0.0 | 2.0 | 0.00 | 0.00 | 0.00 | 59 | 1023.2 |
| 20260906055133 | 73 | 280 | 1.0 | 2.0 | 0.00 | 0.00 | 0.00 | 57 | 1023.2 |
| 20260906054136 | 73 | 280 | 1.0 | 2.0 | 0.00 | 0.00 | 0.00 | 55 | 1023.0 |
| 20260906053119 | 73 | 133 | 1.0 | 3.0 | 0.00 | 0.00 | 0.00 | 52 | 1022.8 |
| 20260906052129 | 73 | 114 | 1.0 | 4.0 | 0.00 | 0.00 | 0.00 | 53 | 1022.7 |
| 20260906051151 | 73 | 24 | 1.0 | 3.0 | 0.00 | 0.00 | 0.00 | 52 | 1022.5 |
| 20260906050134 | 73 | 115 | 0.0 | 5.0 | 0.00 | 0.00 | 0.00 | 53 | 1022.4 |
| 20260906045136 | 73 | 111 | 1.0 | 3.0 | 0.00 | 0.00 | 0.00 | 53 | 1022.4 |
| 20260906044124 | 72 | 168 | 1.0 | 3.0 | 0.00 | 0.00 | 0.00 | 55 | 1022.2 |
| 20260906043127 | 72 | 168 | 1.0 | 3.0 | 0.00 | 0.00 | 0.00 | 56 | 1022.0 |
| 20260906042132 | 71 | 242 | 0.0 | 2.0 | 0.00 | 0.00 | 0.00 | 58 | 1022.1 |
| 20260906041134 | 71 | 355 | 1.0 | 4.0 | 0.00 | 0.00 | 0.00 | 58 | 1022.1 |
| 20260906040121 | 71 | 218 | 0.0 | 2.0 | 0.00 | 0.00 | 0.00 | 59 | 1022.0 |
| 20260906035145 | 71 | 218 | 1.0 | 5.0 | 0.00 | 0.00 | 0.00 | 60 | 1021.8 |
| 20260906034146 | 70 | 221 | 0.0 | 3.0 | 0.00 | 0.00 | 0.00 | 61 | 1021.8 |
| 20260906033131 | 71 | 223 | 0.0 | 3.0 | 0.00 | 0.00 | 0.00 | 62 | 1021.7 |
| 20260906032133 | 72 | 223 | 0.0 | 2.0 | 0.00 | 0.00 | 0.00 | 59 | 1021.8 |
| 20260906031120 | 71 | 223 | 0.0 | 4.0 | 0.00 | 0.00 | 0.00 | 60 | 1021.7 |
| 20260906030124 | 70 | 252 | 0.0 | 3.0 | 0.00 | 0.00 | 0.00 | 61 | 1021.6 |
| 20260906025146 | 71 | 252 | 0.0 | 1.0 | 0.00 | 0.00 | 0.00 | 62 | 1021.5 |
| 20260906024127 | 71 | 252 | 0.0 | 1.0 | 0.00 | 0.00 | 0.00 | 61 | 1021.4 |
| 20260906023135 | 71 | 252 | 1.0 | 3.0 | 0.00 | 0.00 | 0.00 | 63 | 1021.4 |
| 20260906022137 | 71 | 252 | 0.0 | 2.0 | 0.00 | 0.00 | 0.00 | 62 | 1021.4 |
| 20260906021121 | 71 | 252 | 1.0 | 5.0 | 0.00 | 0.00 | 0.00 | 62 | 1021.4 |
| 20260906020124 | 72 | 295 | 1.0 | 3.0 | 0.00 | 0.00 | 0.00 | 59 | 1021.3 |
| 20260906015130 | 72 | 296 | 1.0 | 3.0 | 0.00 | 0.00 | 0.00 | 59 | 1021.4 |
| 20260906014134 | 73 | 350 | 2.0 | 3.0 | 0.00 | 0.00 | 0.00 | 56 | 1021.3 |
| 20260906013118 | 74 | 19 | 1.0 | 3.0 | 0.00 | 0.00 | 0.00 | 53 | 1021.1 |
| 20260906012121 | 75 | 348 | 0.0 | 4.0 | 0.00 | 0.00 | 0.00 | 52 | 1021.0 |
| 20260906011130 | 75 | 288 | 0.0 | 4.0 | 0.00 | 0.00 | 0.00 | 52 | 1020.9 |
| 20260906010132 | 75 | 83 | 1.0 | 4.0 | 0.00 | 0.00 | 0.00 | 49 | 1020.9 |
| 20260906005136 | 75 | 229 | 1.0 | 4.0 | 0.00 | 0.00 | 0.00 | 50 | 1020.9 |
| 20260906004140 | 76 | 224 | 0.0 | 4.0 | 0.00 | 0.00 | 0.00 | 50 | 1020.9 |
| 20260906003124 | 76 | 91 | 0.0 | 4.0 | 0.00 | 0.00 | 0.00 | 50 | 1020.8 |
| 20260906002131 | 76 | 90 | 1.0 | 4.0 | 0.00 | 0.00 | 0.00 | 49 | 1020.8 |
| 20260906001134 | 76 | 53 | 0.0 | 3.0 | 0.00 | 0.00 | 0.00 | 48 | 1020.9 |
| 20260906000137 | 77 | 128 | 1.0 | 2.0 | 0.00 | 0.00 | 0.00 | 48 | 1020.8 |
| 20260905235119 | 77 | 24 | 1.0 | 3.0 | 0.00 | 0.00 | 0.00 | 48 | 1020.8 |
| 20260905234147 | 77 | 161 | 1.0 | 3.0 | 0.00 | 0.00 | 0.00 | 48 | 1020.8 |